Location: Asheville, NC
(35.6000°N, 82.5500°W)
Time: 09:22:32
(UTC-04:00)

RS-15 - Pass Details

Date: 04 January 2018
Orbit: 1891 x 2154 km, 64.8° (Epoch: 16 July)

Event Time Altitude Azimuth Distance (km) Brightness Sun altitude
Rises 18:08:06 0° 327° (NNW) 5,616 10.6 -7.8°
Reaches altitude 10° 18:12:57 10° 342° (NNW) 4,573 9.9 -8.7°
Maximum altitude 18:21:38 22° 30° (NNE) 3,578 9.0 -10.3°
Enters shadow 18:28:25 13° 72° (ENE) 4,136 9.0 -11.6°
